Weather History for Key West NAF, FL

Change the Weather History Date:

Sunday, March 3, 2013

  Actual Average Record
Temperature  
Mean Temperature 62 °F -  
Max Temperature 66 °F 77 °F 84 °F (1962)
Min Temperature 57 °F 67 °F 47 °F (1986)
Degree Days  
Heating Degree Days 4    
Growing Degree Days 12 (Base 50)    
Moisture  
Dew Point 51 °F    
Average Humidity 72    
Maximum Humidity 94    
Minimum Humidity 52    
Precipitation  
Precipitation 0.11 in - - ()
Sea Level Pressure  
Sea Level Pressure 30.05 in    
Wind  
Wind Speed 9 mph (NNW)    
Max Wind Speed 20 mph    
Max Gust Speed 26 mph    
Visibility 10 miles    
Events Rain    
Averages and records for this station are not official NWS values.
T = Trace of Precipitation, MM = Missing Value Source: NWS Daily Summary

Daily Weather History Graph

Daily Weather History Graph

Search for Another Location

Airport:

Trip Planner

Search our weather history database for the weather conditions in past years. The results will help you decide how hot, cold, wet, or windy it might be!

Date:

Astronomy

Mar. 03, 2013 Rise Set
Actual Time 6:47 AM EST 6:30 PM EST
Civil Twilight 6:24 AM EST 6:53 PM EST
Nautical Twilight 5:57 AM EST 7:19 PM EST
Astronomical Twilight 5:31 AM EST 7:46 PM EST
Moon No Moon Rise 10:42 AM EST (3/3)
Length of Visible Light 12h 28m
Length of Day
11h 43m
Waning Gibbous, 64% of the Moon is Illuminated
Mar 3
Waning Gibbous
Mar 4
Last Quarter
Mar 11
New
Mar 19
First Quarter
Mar 27
Full

Hourly Weather History & Observations

Time (EST) Temp. Dew Point Humidity Pressure Visibility Wind Dir Wind Speed Gust Speed Precip Events Conditions
12:53 AM 57.0 °F 48.9 °F 74% 30.03 in 10.0 mi Calm Calm - N/A   Mostly Cloudy
1:53 AM 60.1 °F 50.0 °F 69% 30.01 in 10.0 mi Calm Calm - N/A   Overcast
2:53 AM 57.0 °F 54.0 °F 89% 29.99 in 10.0 mi WSW 5.8 mph - 0.06 in Rain Light Rain
3:53 AM 57.9 °F 53.1 °F 84% 29.97 in 10.0 mi West 4.6 mph - 0.00 in   Overcast
4:53 AM 61.0 °F 52.0 °F 72% 29.97 in 10.0 mi North 15.0 mph 23.0 mph N/A   Overcast
5:13 AM 59.0 °F 55.4 °F 88% 29.98 in 10.0 mi North 19.6 mph 24.2 mph 0.00 in   Overcast
5:39 AM 59.0 °F 55.4 °F 88% 29.98 in 10.0 mi North 13.8 mph 21.9 mph 0.01 in Rain Light Rain
5:49 AM 57.2 °F 55.4 °F 94% 29.99 in 10.0 mi North 12.7 mph 20.7 mph 0.01 in   Overcast
5:54 AM 57.2 °F 55.4 °F 94% 29.99 in 7.0 mi North 15.0 mph 20.7 mph 0.00 in Rain Light Rain
6:53 AM 57.0 °F 53.1 °F 87% 30.00 in 10.0 mi NE 11.5 mph - 0.03 in   Overcast
7:04 AM 57.2 °F 53.6 °F 88% 30.00 in 10.0 mi NNE 9.2 mph - N/A   Mostly Cloudy
7:53 AM 59.0 °F 50.0 °F 72% 30.02 in 10.0 mi NE 9.2 mph - N/A   Mostly Cloudy
8:53 AM 59.0 °F 52.0 °F 78% 30.05 in 10.0 mi East 5.8 mph - N/A   Mostly Cloudy
9:45 AM 62.6 °F 53.6 °F 72% 30.06 in 7.0 mi Variable 3.5 mph - 0.00 in Rain Light Rain
9:53 AM 60.1 °F 53.1 °F 78% 30.06 in 7.0 mi Calm Calm - 0.01 in Rain Light Rain
9:57 AM 60.8 °F 53.6 °F 77% 30.06 in 10.0 mi Calm Calm - 0.00 in   Mostly Cloudy
10:35 AM 62.6 °F 53.6 °F 72% 30.06 in 10.0 mi Calm Calm - 0.00 in   Scattered Clouds
10:53 AM 66.0 °F 53.1 °F 63% 30.05 in 10.0 mi NNW 6.9 mph - 0.00 in   Scattered Clouds
11:53 AM 63.0 °F 53.1 °F 70% 30.05 in 10.0 mi NW 17.3 mph 25.3 mph 0.00 in Rain Light Rain
12:05 PM 62.6 °F 53.6 °F 72% 30.06 in 10.0 mi NW 17.3 mph 24.2 mph 0.00 in   Mostly Cloudy
12:41 PM 62.6 °F 53.6 °F 72% 30.05 in 8.0 mi North 18.4 mph 26.5 mph 0.00 in Rain Light Rain
12:47 PM 60.8 °F 53.6 °F 77% 30.06 in 10.0 mi North 18.4 mph 26.5 mph 0.00 in   Scattered Clouds
12:53 PM 64.0 °F 55.0 °F 73% 30.06 in 10.0 mi North 17.3 mph - 0.00 in   Scattered Clouds
1:53 PM 64.0 °F 51.1 °F 63% 30.04 in 10.0 mi NNW 15.0 mph - 0.01 in   Scattered Clouds
2:53 PM 66.0 °F 51.1 °F 59% 30.05 in 10.0 mi NNW 16.1 mph - N/A   Mostly Cloudy
3:53 PM 62.1 °F 50.0 °F 65% 30.06 in 10.0 mi NNW 15.0 mph - N/A   Mostly Cloudy
4:53 PM 62.1 °F 48.0 °F 60% 30.08 in 10.0 mi NNW 16.1 mph 21.9 mph N/A   Mostly Cloudy
5:53 PM 61.0 °F 48.9 °F 64% 30.09 in 10.0 mi NW 11.5 mph 18.4 mph N/A   Mostly Cloudy
6:53 PM 60.1 °F 48.0 °F 64% 30.12 in 10.0 mi NW 11.5 mph - N/A   Scattered Clouds
7:53 PM 62.1 °F 48.0 °F 60% 30.13 in 10.0 mi NW 13.8 mph - N/A   Mostly Cloudy
8:53 PM 62.1 °F 45.0 °F 53% 30.15 in 10.0 mi NW 15.0 mph 21.9 mph N/A   Mostly Cloudy
9:53 PM 62.1 °F 44.1 °F 52% 30.17 in 10.0 mi NW 15.0 mph 24.2 mph N/A   Mostly Cloudy
10:53 PM 63.0 °F 46.0 °F 54% 30.17 in 10.0 mi NW 13.8 mph 21.9 mph N/A   Overcast
11:53 PM 62.1 °F 46.0 °F 56% 30.16 in 10.0 mi NW 15.0 mph - N/A   Mostly Cloudy